Location: Titusville
(28.6119°N, 80.8078°W)
Time: 04:49:14
(UTC-04:00)

Hubble Space Telescope - Visible Passes

Search period start: 20 August 2018 00:00
Search period end: 30 August 2018 00:00
Orbit: 537 x 541 km, 28.5° (Epoch: 19 August)

Date Brightness Start Highest point End Pass type
(mag) Time Alt. Az. Time Alt. Az. Time Alt. Az.
25 Aug 3.3 05:58:40 10° S 06:00:05 11° SSE 06:01:29 10° SE visible
26 Aug 3.1 05:47:15 10° S 05:49:36 15° SSE 05:52:02 10° ESE visible
27 Aug 2.7 05:37:37 16° S 05:39:10 19° SSE 05:42:09 10° ESE visible
28 Aug 2.3 05:27:56 23° S 05:28:44 24° SSE 05:32:06 10° ESE visible
29 Aug 2.0 05:18:12 30° SSE 05:18:18 30° SSE 05:21:56 10° E visible
